• In Hungary
  • List of Countries
  • For 7 days
  • Water Temperature
  • Satellite Maps
  • Weather Map
  • News
  • Weather Widgets
  • user-avatar
    Login

    Hourly Weather Vysocany

    Today, 19 February, Monday

    Time Temperature Precipitation Wind Pressure Humidity
    00:00 -1°C° 0 mm 1 mps 747 mmHg 83%
    01:00 -1°C° 0 mm 1 mps 747 mmHg 84%
    02:00 -1°C° 0 mm 1 mps 746 mmHg 84%
    03:00 -1°C° 0 mm 1 mps 746 mmHg 84%
    04:00 -2°C° 0 mm 1 mps 745 mmHg 84%
    05:00 -2°C° 0 mm 1 mps 745 mmHg 84%
    06:00 -2°C° 0 mm 1 mps 745 mmHg 84%
    07:00 -2°C° 0 mm 1 mps 745 mmHg 84%
    08:00 -1°C° 0 mm 1 mps 744 mmHg 78%
    09:00 -2°C° 0 mm 2 mps 744 mmHg 72%
    10:00 -1°C° 0 mm 2 mps 744 mmHg 67%
    11:00 -1°C° 0 mm 2 mps 743 mmHg 63%
    12:00 +1°C° 0 mm 2 mps 743 mmHg 60%
    13:00 +2°C° 0 mm 2 mps 743 mmHg 56%
    14:00 +2°C° 0 mm 2 mps 742 mmHg 59%
    15:00 +2°C° 0 mm 2 mps 742 mmHg 61%
    16:00 +2°C° 0 mm 2 mps 741 mmHg 63%
    17:00 +1°C° 0 mm 2 mps 741 mmHg 69%
    18:00 -1°C° 0 mm 2 mps 741 mmHg 76%
    19:00 -2°C° 0 mm 2 mps 741 mmHg 82%
    20:00 -2°C° 0 mm 2 mps 741 mmHg 83%
    21:00 -3°C° 0 mm 2 mps 741 mmHg 85%
    22:00 -3°C° 0 mm 2 mps 741 mmHg 86%
    23:00 -3°C° 0 mm 2 mps 741 mmHg 86%

    Tomorrow, 20 February, Tuesday

    Time Temperature Precipitation Wind Pressure Humidity
    00:00 -3°C° 0 mm 2 mps 740 mmHg 86%
    01:00 -3°C° 0 mm 2 mps 740 mmHg 85%
    02:00 -3°C° 0 mm 2 mps 740 mmHg 85%
    03:00 -3°C° 0 mm 2 mps 740 mmHg 84%
    04:00 -3°C° 0 mm 2 mps 740 mmHg 83%
    05:00 -3°C° 0 mm 2 mps 740 mmHg 82%
    06:00 -3°C° 0 mm 2 mps 739 mmHg 81%
    07:00 -3°C° 0 mm 2 mps 739 mmHg 80%
    08:00 -3°C° 0.1 mm 2 mps 740 mmHg 77%
    09:00 -2°C° 0.1 mm 2 mps 740 mmHg 74%
    10:00 -1°C° 0.1 mm 2 mps 740 mmHg 71%
    11:00 +1°C° 0.1 mm 2 mps 740 mmHg 71%
    12:00 +1°C° 0.1 mm 2 mps 740 mmHg 70%
    13:00 +2°C° 0.1 mm 2 mps 740 mmHg 70%
    14:00 +2°C° 0 mm 2 mps 740 mmHg 70%
    15:00 +2°C° 0 mm 2 mps 740 mmHg 70%
    16:00 +2°C° 0 mm 2 mps 739 mmHg 70%
    17:00 +2°C° 0 mm 2 mps 740 mmHg 73%
    18:00 +2°C° 0 mm 1 mps 740 mmHg 75%
    19:00 +1°C° 0 mm 1 mps 740 mmHg 77%
    20:00 +1°C° 0 mm 1 mps 740 mmHg 78%
    21:00 0°C° 0 mm 1 mps 741 mmHg 78%
    22:00 0°C° 0 mm 1 mps 741 mmHg 79%
    23:00 0°C° 0 mm 1 mps 741 mmHg 79%

    Day after tomorrow, 21 February, Wednesday

    Time Temperature Precipitation Wind Pressure Humidity
    00:00 -1°C° 0 mm 1 mps 741 mmHg 79%
    01:00 -1°C° 0 mm 1 mps 741 mmHg 79%
    02:00 -1°C° 0 mm 1 mps 741 mmHg 78%
    03:00 -1°C° 0 mm 1 mps 741 mmHg 78%
    04:00 -4°C° 0 mm 2 mps 742 mmHg 78%
    05:00 -4°C° 0 mm 2 mps 742 mmHg 78%
    06:00 -4°C° 0 mm 2 mps 742 mmHg 78%
    07:00 -4°C° 0 mm 2 mps 742 mmHg 77%
    08:00 -3°C° 0 mm 2 mps 742 mmHg 72%
    09:00 -2°C° 0 mm 2 mps 742 mmHg 67%
    10:00 -1°C° 0 mm 2 mps 743 mmHg 61%
    11:00 0°C° 0 mm 3 mps 743 mmHg 58%
    12:00 +1°C° 0 mm 3 mps 742 mmHg 55%
    13:00 +2°C° 0 mm 3 mps 742 mmHg 51%
    14:00 +2°C° 0 mm 3 mps 742 mmHg 52%
    15:00 +2°C° 0 mm 3 mps 742 mmHg 53%
    16:00 +1°C° 0 mm 3 mps 742 mmHg 55%
    17:00 0°C° 0 mm 3 mps 742 mmHg 60%
    18:00 -1°C° 0 mm 3 mps 742 mmHg 65%
    19:00 -2°C° 0 mm 3 mps 742 mmHg 70%
    20:00 -4°C° 0 mm 3 mps 742 mmHg 71%
    21:00 -4°C° 0 mm 3 mps 742 mmHg 73%
    22:00 -4°C° 0 mm 3 mps 742 mmHg 75%
    23:00 -4°C° 0 mm 3 mps 742 mmHg 76%

    22 February, Thursday

    Time Temperature Precipitation Wind Pressure Humidity
    00:00 -5°C° 0 mm 3 mps 742 mmHg 77%
    01:00 -5°C° 0 mm 3 mps 742 mmHg 79%
    02:00 -5°C° 0 mm 3 mps 742 mmHg 79%
    03:00 -5°C° 0 mm 3 mps 742 mmHg 79%
    04:00 -5°C° 0 mm 3 mps 742 mmHg 79%
    05:00 -5°C° 0 mm 3 mps 742 mmHg 78%
    06:00 -5°C° 0 mm 4 mps 742 mmHg 77%
    07:00 -5°C° 0 mm 4 mps 742 mmHg 77%
    08:00 -4°C° 0 mm 4 mps 742 mmHg 72%
    09:00 -4°C° 0 mm 4 mps 742 mmHg 67%
    10:00 -4°C° 0 mm 5 mps 742 mmHg 62%
    11:00 -2°C° 0 mm 5 mps 742 mmHg 59%
    12:00 -2°C° 0 mm 5 mps 742 mmHg 56%
    13:00 -2°C° 0 mm 6 mps 741 mmHg 53%
    14:00 -1°C° 0 mm 5 mps 741 mmHg 54%
    15:00 -1°C° 0 mm 5 mps 741 mmHg 54%
    16:00 -1°C° 0 mm 5 mps 741 mmHg 55%
    17:00 -2°C° 0 mm 5 mps 741 mmHg 58%
    18:00 -3°C° 0 mm 4 mps 741 mmHg 62%
    19:00 -4°C° 0 mm 4 mps 741 mmHg 65%
    20:00 -4°C° 0 mm 4 mps 741 mmHg 65%
    21:00 -4°C° 0 mm 4 mps 741 mmHg 66%
    22:00 -5°C° 0 mm 4 mps 742 mmHg 66%
    23:00 -5°C° 0 mm 4 mps 741 mmHg 67%

    23 February, Friday

    Time Temperature Precipitation Wind Pressure Humidity
    00:00 -5°C° 0 mm 4 mps 741 mmHg 67%
    01:00 -5°C° 0 mm 4 mps 741 mmHg 68%
    02:00 -5°C° 0 mm 4 mps 741 mmHg 68%
    03:00 -5°C° 0 mm 4 mps 741 mmHg 69%
    04:00 -5°C° 0 mm 4 mps 741 mmHg 70%
    05:00 -5°C° 0 mm 4 mps 741 mmHg 70%
    06:00 -7°C° 0 mm 4 mps 741 mmHg 70%
    07:00 -7°C° 0 mm 4 mps 742 mmHg 71%
    08:00 -5°C° 0 mm 4 mps 742 mmHg 66%
    09:00 -5°C° 0 mm 4 mps 742 mmHg 62%
    10:00 -5°C° 0 mm 5 mps 743 mmHg 58%
    11:00 -4°C° 0 mm 5 mps 743 mmHg 53%
    12:00 -4°C° 0 mm 5 mps 743 mmHg 49%
    13:00 -2°C° 0 mm 5 mps 743 mmHg 45%
    14:00 -2°C° 0 mm 5 mps 743 mmHg 45%
    15:00 -2°C° 0 mm 5 mps 743 mmHg 44%
    16:00 -2°C° 0 mm 5 mps 743 mmHg 44%
    17:00 -5°C° 0 mm 5 mps 744 mmHg 46%
    18:00 -6°C° 0 mm 5 mps 744 mmHg 48%
    19:00 -7°C° 0 mm 4 mps 745 mmHg 49%
    20:00 -7°C° 0 mm 5 mps 745 mmHg 48%
    21:00 -7°C° 0 mm 5 mps 745 mmHg 47%
    22:00 -8°C° 0 mm 5 mps 746 mmHg 46%
    23:00 -8°C° 0 mm 5 mps 746 mmHg 45%

    24 February, Saturday

    Time Temperature Precipitation Wind Pressure Humidity
    00:00 -8°C° 0 mm 4 mps 746 mmHg 44%
    01:00 -8°C° 0 mm 4 mps 746 mmHg 43%
    02:00 -9°C° 0 mm 4 mps 747 mmHg 44%
    03:00 -8°C° 0 mm 3 mps 747 mmHg 46%
    04:00 -8°C° 0 mm 3 mps 747 mmHg 47%
    05:00 -8°C° 0 mm 3 mps 747 mmHg 49%
    06:00 -8°C° 0 mm 3 mps 748 mmHg 51%
    07:00 -7°C° 0 mm 2 mps 748 mmHg 53%
    08:00 -8°C° 0 mm 3 mps 748 mmHg 51%
    09:00 -7°C° 0 mm 3 mps 749 mmHg 49%
    10:00 -6°C° 0 mm 3 mps 749 mmHg 48%
    11:00 -6°C° 0 mm 3 mps 749 mmHg 46%
    12:00 -5°C° 0 mm 4 mps 749 mmHg 45%
    13:00 -5°C° 0 mm 4 mps 749 mmHg 43%
    14:00 -5°C° 0 mm 4 mps 748 mmHg 42%
    15:00 -5°C° 0 mm 4 mps 748 mmHg 42%
    16:00 -5°C° 0 mm 4 mps 748 mmHg 41%
    17:00 -5°C° 0 mm 3 mps 748 mmHg 43%
    18:00 -6°C° 0 mm 3 mps 747 mmHg 46%
    19:00 -5°C° 0 mm 2 mps 747 mmHg 48%
    20:00 -7°C° 0 mm 3 mps 747 mmHg 52%
    21:00 -7°C° 0 mm 3 mps 747 mmHg 55%
    22:00 -7°C° 0 mm 3 mps 747 mmHg 58%
    23:00 -8°C° 0.1 mm 4 mps 746 mmHg 60%
    Show more